Meteo Giornale » Osservazioni meteo Qatar » Doha
ore: 22:00 - Osservazioni Meteo Doha
Lat. 25° 15' N Lon. 51° 34' E Alt. 11 metri s.l.m.
37 °C
Sereno
Temp. 24 Ore
36 °C
42 °C
Nord-Ovest
20.3 Km/h
Dew point 23 °C
Umidità 44 %
Visibilità 10 Km
Il sole sorge alle ore 05:14
Il sole tramonta alle ore 17:53
| Data e Ora | Cielo e Fenomeni | T °C | DP °C | Um. % | Pres. hPa | Vis. km | Vento km/h | |
|---|---|---|---|---|---|---|---|---|
| Oggi h: 22:00 | Sereno | 37 | 23 | 44 | 1001 | 10 | NO 20.3 | |
| Oggi h: 21:30 | Sereno | 37 | 23 | 44 | 1001 | 10 | NO 24 | |
| Oggi h: 21:00 | Sereno | 37 | 23 | 44 | 1001 | 10 | N/NO 18.5 | |
| Oggi h: 20:30 | Sereno | 37 | 23 | 44 | 1001 | 10 | N/NO 20.3 | |
| Oggi h: 20:00 | Sereno | 38 | 22 | 39 | 1001 | 10 | N/NO 20.3 | |
| Oggi h: 19:30 | Sereno | 38 | 22 | 39 | 1001 | 10 | N/NO 18.5 | |
| Oggi h: 19:00 | Sereno | 39 | 21 | 35 | 1001 | 10 | N/NO 22.2 | |
| Oggi h: 18:30 | Sereno | 39 | 22 | 37 | 1000 | 10 | N/NO 24 | |
| Oggi h: 18:00 | Sereno | 39 | 26 | 48 | 1000 | 10 | N 24 | |
| Oggi h: 17:30 | Sereno | 39 | 26 | 48 | 1000 | 10 | N 27.8 | |
| Oggi h: 17:00 | Sereno | 39 | 26 | 48 | 1000 | 10 | N 25.9 | |
| Oggi h: 16:30 | Sereno | 39 | 27 | 50 | 1000 | 10 | N 29.6 | |
| Oggi h: 16:00 | Sereno | 39 | 27 | 50 | 1000 | 10 | N 31.5 | |
| Oggi h: 15:30 | Sereno | 39 | 28 | 54 | 999 | 10 | N 31.5 | |
| Oggi h: 15:00 | Sereno | 39 | 28 | 54 | 1000 | 10 | N 35.2 | |
| Oggi h: 14:30 | Sereno | 39 | 27 | 50 | 999 | 10 | N 35.2 | |
| Oggi h: 14:00 | Sereno | 40 | 28 | 51 | 1000 | 10 | N 33.3 | |
| Oggi h: 13:30 | Sereno | 40 | 28 | 51 | 1000 | 10 | N 33.3 | |
| Oggi h: 13:00 | Sereno | 40 | 27 | 48 | 1000 | 10 | N 35.2 | |
| Oggi h: 12:30 | Sereno | 41 | 27 | 45 | 1000 | 10 | N 33.3 | |
| Oggi h: 12:00 | Sereno | 41 | 27 | 45 | 1000 | 10 | N 33.3 | |
| Oggi h: 11:30 | Sereno | 42 | 25 | 38 | 1000 | 10 | N 37 | |
| Oggi h: 11:00 | Sereno | 41 | 25 | 40 | 1001 | 10 | N 38.8 | |
| Oggi h: 10:30 | Sereno | 41 | 23 | 36 | 1001 | 10 | N 37 | |
| Oggi h: 10:00 | Sereno | 41 | 24 | 38 | 1001 | 10 | N 35.2 | |
| Oggi h: 09:30 | Sereno | 41 | 23 | 36 | 1001 | 10 | N/NO 29.6 | |
| Oggi h: 09:00 | Sereno | 41 | 24 | 38 | 1001 | 10 | N/NO 29.6 | |
| Oggi h: 08:30 | Sereno | 39 | 24 | 42 | 1001 | 10 | N/NO 27.8 | |
| Oggi h: 08:00 | Sereno | 38 | 25 | 47 | 1000 | 10 | N/NO 27.8 | |
| Oggi h: 07:30 | Sereno | 38 | 25 | 47 | 1000 | 10 | N/NO 25.9 | |
| Oggi h: 07:00 | Sereno | 37 | 26 | 53 | 1000 | 10 | N/NO 24 | |
| Oggi h: 06:30 | Sereno | 36 | 26 | 56 | 1000 | 10 | N/NO 22.2 | |
| Oggi h: 06:00 | Sereno | 36 | 26 | 56 | 1000 | 10 | N/NO 20.3 | |
| Oggi h: 05:30 | Sereno | 36 | 25 | 53 | 1000 | 10 | NO 20.3 | |
| Oggi h: 05:00 | Sereno | 36 | 25 | 53 | 999 | 10 | NO 20.3 | |
| Oggi h: 04:30 | Sereno | 36 | 25 | 53 | 999 | 10 | NO 22.2 | |
| Oggi h: 04:00 | Sereno | 36 | 25 | 53 | 999 | 10 | NO 20.3 | |
| Oggi h: 03:30 | Sereno | 37 | 24 | 47 | 999 | 10 | NO 18.5 | |
| Oggi h: 03:00 | Sereno | 37 | 24 | 47 | 999 | 10 | NO 22.2 | |
| Oggi h: 02:30 | Sereno | 37 | 24 | 47 | 999 | 10 | NO 20.3 | |
| Oggi h: 02:00 | Sereno | 37 | 24 | 47 | 999 | 10 | NO 18.5 | |
| Oggi h: 01:30 | Sereno | 37 | 25 | 50 | 999 | 10 | NO 18.5 | |
| Oggi h: 01:00 | Sereno | 37 | 26 | 53 | 999 | 10 | NO 20.3 | |
| Oggi h: 00:30 | Sereno | 36 | 27 | 60 | 1000 | 10 | NO 16.7 | |
| Oggi h: 00:00 | Sereno | 36 | 27 | 60 | 1000 | 10 | NO 18.5 | |
| Ieri h: 23:30 | Sereno | 36 | 27 | 60 | 1000 | 10 | N/NO 16.7 | |
| Ieri h: 23:00 | Sereno | 36 | 27 | 60 | 1000 | 10 | NO 20.3 | |



